EW0758 Weather Reports


time (UTC)temp
C
wind
direction
speed
KPH
gust
KPH
rain 1hr
cm
rain 24hr
cm
rain mn
cm
humidity
%
barometer
mb
20260508125442 31 30 3.2 12.9 0.00 0.00 0.00 70 1009.7
20260508124938 31 50 0.0 20.9 0.00 0.00 0.00 70 1009.5
20260508124430 31 11 1.6 20.9 0.00 0.00 0.00 69 1009.5
20260508123917 31 33 3.2 20.9 0.00 0.00 0.00 69 1009.4
20260508123412 31 39 3.2 27.4 0.00 0.00 0.00 69 1009.2
20260508122849 31 60 11.3 27.4 0.00 0.00 0.00 69 1009.2
20260508122341 31 55 0.0 45.1 0.00 0.00 0.00 69 1009.2
20260508121829 31 65 6.4 45.1 0.00 0.00 0.00 69 1009.2
20260508121331 31 64 1.6 27.4 0.00 0.00 0.00 69 1009.0
20260508120820 31 111 16.1 27.4 0.00 0.00 0.00 69 1009.1
20260508120311 31 205 9.7 16.1 0.00 0.00 0.00 69 1008.8
20260508115758 31 66 8.0 20.9 0.00 0.00 0.00 69 1009.0
20260508115654 31 58 8.0 20.9 0.00 0.00 0.00 69 1008.9
20260508114757 31 25 1.6 24.1 0.00 0.00 0.00 69 1008.8
20260508114247 31 300 4.8 24.1 0.00 0.00 0.00 69 1008.7
20260508114137 32 7 4.8 24.1 0.00 0.00 0.00 69 1008.5
20260508113216 32 35 1.6 16.1 0.00 0.00 0.00 69 1008.5
20260508112709 32 298 0.0 16.1 0.00 0.00 0.00 68 1008.2
20260508112201 32 24 0.0 16.1 0.00 0.00 0.00 68 1008.2
20260508112049 32 7 0.0 20.9 0.00 0.00 0.00 68 1008.3
20260508111148 32 56 0.0 27.4 0.00 0.00 0.00 68 1008.2
20260508110635 32 29 0.0 27.4 0.00 0.00 0.00 68 1008.3
20260508110533 32 51 0.0 48.3 0.00 0.00 0.00 68 1008.3
20260508105624 32 40 6.4 48.3 0.00 0.00 0.00 67 1008.2
20260508105112 32 275 6.4 27.4 0.00 0.00 0.00 67 1007.8
20260508104608 32 96 3.2 27.4 0.00 0.00 0.00 66 1007.8
20260508104100 32 37 1.6 37.0 0.00 0.00 0.00 66 1007.9
20260508103603 33 16 14.5 37.0 0.00 0.00 0.00 66 1007.9
20260508103457 33 342 9.7 32.2 0.00 0.00 0.00 66 1007.7
20260508102552 33 66 14.5 24.1 0.00 0.00 0.00 65 1007.7
20260508102032 33 119 3.2 24.1 0.00 0.00 0.00 65 1007.3
20260508101758 33 32 1.6 16.1 0.00 0.00 0.00 66 1007.4
20260508101526 33 32 1.6 16.1 0.00 0.00 0.00 66 1007.4
20260508101013 33 53 0.0 20.9 0.00 0.00 0.00 66 1007.4
20260508100510 33 61 3.2 24.1 0.00 0.00 0.00 65 1007.3
20260508100003 33 20 0.0 24.1 0.00 0.00 0.00 65 1007.3
20260508095450 33 65 4.8 20.9 0.00 0.00 0.00 65 1007.3
20260508094945 33 28 0.0 20.9 0.00 0.00 0.00 66 1006.9
20260508094439 33 30 1.6 27.4 0.00 0.00 0.00 66 1006.9
20260508094346 33 323 14.5 37.0 0.00 0.00 0.00 67 1006.6
20260508093411 33 89 8.0 37.0 0.00 0.00 0.00 67 1006.5
20260508093251 34 190 9.7 27.4 0.00 0.00 0.00 68 1006.9
20260508092359 34 127 6.4 27.4 0.00 0.00 0.00 68 1006.6
20260508091850 34 42 8.0 20.9 0.00 0.00 0.00 68 1006.5
20260508091348 34 57 8.0 32.2 0.00 0.00 0.00 67 1006.3
20260508090836 34 218 0.0 32.2 0.00 0.00 0.00 66 1006.5
20260508090331 35 19 1.6 16.1 0.00 0.00 0.00 65 1006.6
20260508085927 35 213 8.0 16.1 0.00 0.00 0.00 64 1006.4
20260508085812 35 322 11.3 16.1 0.00 0.00 0.00 65 1006.4
20260508085649 35 28 0.0 16.1 0.00 0.00 0.00 65 1006.2
20260508084247 35 342 9.7 16.1 0.00 0.00 0.00 65 1006.1
20260508083744 35 101 3.2 8.0 0.00 0.00 0.00 65 1006.2
20260508083248 35 187 4.8 8.0 0.00 0.00 0.00 65 1006.2
20260508082731 35 24 1.6 8.0 0.00 0.00 0.00 66 1006.3
20260508082219 35 27 0.0 12.9 0.00 0.00 0.00 65 1006.2
20260508081710 34 7 0.0 12.9 0.00 0.00 0.00 67 1006.1
20260508081334 35 11 1.6 12.9 0.00 0.00 0.00 67 1006.1
20260508080526 35 18 3.2 16.1 0.00 0.00 0.00 66 1006.0
20260508075640 34 7 3.2 16.1 0.00 0.00 0.00 66 1006.2
20260508075139 34 170 6.4 16.1 0.00 0.00 0.00 68 1006.2
20260508074736 34 206 3.2 20.9 0.00 0.00 0.00 67 1006.1
20260508073607 35 204 8.0 16.1 0.00 0.00 0.00 67 1006.1
20260508073100 34 35 0.0 20.9 0.00 0.00 0.00 68 1006.2
20260508073001 33 357 3.2 24.1 0.00 0.00 0.00 69 1006.2
20260508072038 33 17 14.5 24.1 0.00 0.00 0.00 69 1006.4
20260508071521 33 19 4.8 24.1 0.00 0.00 0.00 69 1006.4
20260508071001 33 328 6.4 37.0 0.00 0.00 0.00 70 1006.6
20260508070453 33 2 20.9 37.0 0.00 0.00 0.00 70 1006.5
20260508065940 33 319 22.5 37.0 0.00 0.00 0.00 70 1006.4
20260508065432 34 22 16.1 37.0 0.00 0.00 0.00 70 1006.5
20260508064924 34 327 14.5 37.0 0.00 0.00 0.00 70 1006.4
20260508064424 33 3 19.3 32.2 0.00 0.00 0.00 70 1006.3
20260508064100 34 10 16.1 40.2 0.00 0.00 0.00 69 1006.5
20260508062852 35 347 11.3 24.1 0.00 0.00 0.00 68 1006.5
20260508062341 35 221 8.0 37.0 0.00 0.00 0.00 69 1006.5
20260508061829 35 339 27.4 37.0 0.00 0.00 0.00 69 1006.6
20260508061332 34 319 1.6 32.2 0.00 0.00 0.00 69 1006.9
20260508060850 33 320 3.2 32.2 0.00 0.00 0.00 70 1006.9
20260508060702 35 19 9.7 27.4 0.00 0.00 0.00 69 1007.0
20260508055800 34 22 11.3 37.0 0.00 0.00 0.00 70 1007.0
20260508055238 33 93 12.9 37.0 0.00 0.00 0.00 71 1007.2
20260508054735 35 86 4.8 37.0 0.00 0.00 0.00 69 1007.1
20260508054228 34 4 0.0 40.2 0.00 0.00 0.00 70 1007.2
20260508054213 33 337 22.5 45.1 0.00 0.00 0.00 73 1007.4
20260508053417 33 19 3.2 37.0 0.00 0.00 0.00 74 1007.5
20260508053205 33 344 17.7 37.0 0.00 0.00 0.00 72 1007.3
20260508051639 33 7 20.9 37.0 0.00 0.00 0.00 73 1007.5
20260508051129 33 343 19.3 37.0 0.00 0.00 0.00 73 1007.5
20260508050611 33 286 17.7 37.0 0.00 0.00 0.00 73 1007.7
20260508050512 33 1 20.9 27.4 0.00 0.00 0.00 74 1008.0
20260508045545 33 10 1.6 27.4 0.00 0.00 0.00 72 1008.1
20260508045032 33 316 25.7 32.2 0.00 0.00 0.00 74 1008.2
20260508044525 33 17 3.2 37.0 0.00 0.00 0.00 72 1008.1
20260508044025 33 347 12.9 37.0 0.00 0.00 0.00 73 1008.3
20260508043502 33 320 22.5 37.0 0.00 0.00 0.00 75 1008.4
20260508042940 33 2 14.5 37.0 0.00 0.00 0.00 74 1008.2
20260508042436 33 349 12.9 32.2 0.00 0.00 0.00 72 1008.4
20260508041937 33 199 9.7 40.2 0.00 0.00 0.00 74 1008.4
20260508041425 33 292 9.7 40.2 0.00 0.00 0.00 74 1008.5
20260508040905 34 354 0.0 37.0 0.00 0.00 0.00 72 1008.6
20260508040400 34 359 24.1 32.2 0.00 0.00 0.00 72 1008.6
20260508035920 33 209 24.1 32.2 0.00 0.00 0.00 72 1008.5
20260508035850 33 239 12.9 37.0 0.00 0.00 0.00 72 1008.6
20260508035256 33 346 17.7 40.2 0.00 0.00 0.00 73 1008.6
20260508034315 33 258 8.0 40.2 0.00 0.00 0.00 71 1008.8
20260508034219 33 309 1.6 40.2 0.00 0.00 0.00 72 1009.0
20260508033247 32 206 22.5 48.3 0.00 0.00 0.00 73 1008.9
20260508032741 32 208 27.4 53.1 0.00 0.00 0.00 75 1009.2
20260508032238 32 203 19.3 53.1 0.00 0.00 0.00 74 1009.1
20260508031724 32 91 22.5 48.3 0.00 0.00 0.00 75 1009.2
20260508031204 32 39 8.0 53.1 0.00 0.00 0.00 74 1009.4
20260508030645 31 230 17.7 53.1 0.00 0.00 0.00 76 1009.5
20260508030139 32 264 4.8 40.2 0.00 0.00 0.00 74 1009.2
20260508025618 32 210 11.3 53.1 0.00 0.00 0.00 73 1009.5
20260508025100 32 218 8.0 53.1 0.00 0.00 0.00 73 1009.3
20260508024552 32 328 17.7 27.4 0.00 0.00 0.00 74 1009.4
20260508024414 32 2 3.2 32.2 0.00 0.00 0.00 72 1009.6
20260508023536 32 331 17.7 27.4 0.00 0.00 0.00 74 1009.6
20260508023028 32 47 0.0 37.0 0.00 0.00 0.00 74 1009.7
20260508022509 31 173 20.9 37.0 0.00 0.00 0.00 74 1009.7
20260508021952 31 327 12.9 32.2 0.00 0.00 0.00 76 1009.8
20260508021448 31 162 11.3 27.4 0.00 0.00 0.00 76 1010.1
20260508020924 32 298 4.8 16.1 0.00 0.00 0.00 75 1010.0
20260508020407 31 15 4.8 24.1 0.00 0.00 0.00 76 1010.0
20260508020010 31 199 14.5 24.1 0.00 0.00 0.00 78 1010.1
20260508014843 31 2 3.2 20.9 0.00 0.00 0.00 77 1010.0
20260508014329 31 200 4.8 24.1 0.00 0.00 0.00 77 1010.0
20260508013832 30 1 6.4 27.4 0.00 0.00 0.00 78 1010.1
20260508013308 30 26 14.5 27.4 0.00 0.00 0.00 79 1010.3
20260508012803 31 29 0.0 24.1 0.00 0.00 0.00 76 1010.0
20260508012242 31 356 14.5 24.1 0.00 0.00 0.00 77 1010.2
20260508011742 31 5 9.7 24.1 0.00 0.00 0.00 76 1010.0
20260508011652 31 6 9.7 27.4 0.00 0.00 0.00 77 1010.1
20260508010717 31 179 16.1 32.2 0.00 0.00 0.00 77 1010.2
20260508010204 31 20 3.2 32.2 0.00 0.00 0.00 76 1010.2
20260508005702 32 342 11.3 16.1 0.00 0.00 0.00 76 1010.3
20260508005152 32 6 4.8 16.1 0.00 0.00 0.00 75 1010.3
20260508004655 31 39 1.6 16.1 0.00 0.00 0.00 78 1010.0
20260508004146 31 33 0.0 27.4 0.00 0.00 0.00 77 1009.9
20260508003642 31 185 16.1 27.4 0.00 0.00 0.00 79 1010.1
20260508003135 32 32 3.2 12.9 0.00 0.00 0.00 74 1009.9
20260508002614 32 31 1.6 16.1 0.00 0.00 0.00 73 1010.1
20260508002059 32 37 0.0 16.1 0.00 0.00 0.00 73 1010.3
20260508001550 31 172 6.4 16.1 0.00 0.00 0.00 75 1010.1
20260508001057 31 7 3.2 8.0 0.00 0.00 0.00 76 1010.1
20260508000550 31 35 0.0 12.9 0.00 0.00 0.00 76 1010.2
20260508000027 31 37 1.6 12.9 0.00 0.00 0.00 76 1010.1
20260507235521 31 81 3.2 12.9 0.00 0.00 0.00 75 1009.9
20260507235016 31 29 3.2 12.9 0.00 0.00 0.00 76 1009.9
20260507234509 31 94 6.4 12.9 0.00 0.00 0.00 76 1009.8
20260507233958 31 221 1.6 12.9 0.00 0.00 0.00 76 1010.0
20260507233448 30 25 3.2 16.1 0.00 0.00 0.00 79 1010.1
20260507232943 30 15 3.2 16.1 0.00 0.00 0.00 78 1010.1
20260507232451 30 8 3.2 12.9 0.00 0.00 0.00 78 1009.6
20260507231922 30 48 0.0 12.9 0.00 0.00 0.00 78 1009.7
20260507231419 30 287 1.6 12.9 0.00 0.00 0.00 79 1009.6
20260507230910 29 353 3.2 8.0 0.00 0.00 0.00 80 1009.7
20260507230403 30 30 0.0 12.9 0.00 0.00 0.00 79 1009.9
20260507230226 29 59 0.0 12.9 0.00 0.00 0.00 81 1009.7
20260507225349 29 31 4.8 12.9 0.00 0.00 0.00 81 1009.7
20260507224837 28 23 0.0 0.0 0.00 0.00 0.00 81 1009.9
20260507224335 28 28 0.0 0.0 0.00 0.00 0.00 82 1009.3
20260507223930 28 16 0.0 0.0 0.00 0.00 0.00 82 1009.6
20260507222807 28 29 0.0 0.0 0.00 0.00 0.00 83 1009.6
20260507222301 28 25 0.0 8.0 0.00 0.00 0.00 83 1009.5
20260507221750 28 26 0.0 8.0 0.00 0.00 0.00 83 1009.3
20260507221241 28 18 4.8 12.9 0.00 0.00 0.00 83 1009.5
20260507220735 28 24 0.0 12.9 0.00 0.00 0.00 84 1009.3
20260507220231 28 11 0.0 8.0 0.00 0.00 0.00 83 1009.3
20260507215714 28 21 0.0 3.2 0.00 0.00 0.00 83 1009.2
20260507215209 28 20 0.0 3.2 0.00 0.00 0.00 84 1009.1
20260507214704 28 36 0.0 3.2 0.00 0.00 0.00 83 1009.3
20260507214156 27 64 1.6 3.2 0.00 0.00 0.00 84 1009.1
20260507213645 27 36 0.0 8.0 0.00 0.00 0.00 84 1009.2
20260507213136 27 17 3.2 8.0 0.00 0.00 0.00 84 1009.1
20260507212521 27 39 3.2 12.9 0.00 0.00 0.00 84 1009.1
20260507211604 28 10 4.8 12.9 0.00 0.00 0.00 84 1008.8
20260507211233 28 9 3.2 8.0 0.00 0.00 0.00 84 1008.6
20260507210040 27 34 0.0 8.0 0.00 0.00 0.00 84 1008.7
20260507205532 27 17 3.2 8.0 0.00 0.00 0.00 84 1008.8
20260507205017 27 23 0.0 3.2 0.00 0.00 0.00 84 1008.7
20260507204454 27 5 3.2 8.0 0.00 0.00 0.00 84 1009.1
20260507203939 27 7 1.6 8.0 0.00 0.00 0.00 85 1008.9
20260507203426 27 25 0.0 12.9 0.00 0.00 0.00 86 1009.0
20260507203256 27 7 0.0 16.1 0.00 0.00 0.00 86 1008.5
20260507202410 27 22 3.2 20.9 0.00 0.00 0.00 85 1008.7
20260507201903 28 350 4.8 37.0 0.00 0.00 0.00 84 1008.6
20260507201357 28 343 11.3 37.0 0.00 0.00 0.00 84 1008.6
20260507200845 28 18 4.8 27.4 0.00 0.00 0.00 82 1008.6
20260507200352 28 9 14.5 27.4 0.00 0.00 0.00 82 1008.3
20260507195830 28 22 0.0 20.9 0.00 0.00 0.00 82 1008.6
20260507195323 28 356 4.8 12.9 0.00 0.00 0.00 82 1008.5
20260507194804 28 19 0.0 3.2 0.00 0.00 0.00 82 1008.7
20260507194624 28 32 0.0 8.0 0.00 0.00 0.00 82 1008.5
20260507193746 28 22 1.6 12.9 0.00 0.00 0.00 82 1008.4
20260507193242 28 17 0.0 16.1 0.00 0.00 0.00 82 1008.4
20260507192731 28 5 6.4 16.1 0.00 0.00 0.00 82 1008.3
20260507192222 28 19 0.0 8.0 0.00 0.00 0.00 81 1008.5
20260507192059 28 17 4.8 16.1 0.00 0.00 0.00 81 1008.3
20260507191211 28 17 6.4 16.1 0.00 0.00 0.00 82 1008.4
20260507191109 28 17 3.2 16.1 0.00 0.00 0.00 82 1008.4
20260507190302 28 358 4.8 16.1 0.00 0.00 0.00 82 1008.5
20260507185134 28 6 3.2 8.0 0.00 0.00 0.00 82 1008.3
20260507184629 28 19 0.0 12.9 0.00 0.00 0.00 82 1008.3
20260507184524 28 20 0.0 24.1 0.00 0.00 0.00 82 1008.3
20260507183600 28 23 8.0 27.4 0.00 0.00 0.00 82 1008.3
20260507183053 28 353 14.5 27.4 0.00 0.00 0.00 82 1008.4
20260507182545 28 8 1.6 24.1 0.00 0.00 0.00 82 1008.3
20260507182038 28 353 9.7 20.9 0.00 0.00 0.00 81 1008.3
20260507181525 28 26 1.6 12.9 0.00 0.00 0.00 81 1008.1
20260507181021 28 1 3.2 16.1 0.00 0.00 0.00 81 1008.2
20260507180511 28 25 4.8 16.1 0.00 0.00 0.00 81 1008.4
20260507180003 28 338 0.0 12.9 0.00 0.00 0.00 80 1008.4
20260507175455 28 11 4.8 16.1 0.00 0.00 0.00 80 1008.4
20260507174947 28 25 3.2 16.1 0.00 0.00 0.00 80 1008.4
20260507174452 28 28 0.0 12.9 0.00 0.00 0.00 80 1008.2
20260507173935 28 12 3.2 16.1 0.00 0.00 0.00 80 1008.2
20260507173837 28 357 4.8 16.1 0.00 0.00 0.00 80 1008.4
20260507172916 28 9 6.4 16.1 0.00 0.00 0.00 80 1008.6
20260507172411 28 11 4.8 16.1 0.00 0.00 0.00 80 1008.7
20260507172329 28 8 4.8 16.1 0.00 0.00 0.00 80 1008.7
20260507171350 28 13 6.4 16.1 0.00 0.00 0.00 80 1008.6
20260507170849 28 339 4.8 12.9 0.00 0.00 0.00 80 1008.6
20260507170334 29 8 6.4 16.1 0.00 0.00 0.00 80 1008.5
20260507165831 29 14 6.4 16.1 0.00 0.00 0.00 79 1008.6
20260507165321 29 344 8.0 24.1 0.00 0.00 0.00 79 1008.5
20260507164809 29 341 16.1 24.1 0.00 0.00 0.00 79 1008.5
20260507164307 29 351 9.7 16.1 0.00 0.00 0.00 78 1008.3
20260507163756 29 17 3.2 12.9 0.00 0.00 0.00 78 1008.5
20260507163212 29 25 0.0 8.0 0.00 0.00 0.00 78 1008.5
20260507162245 29 26 0.0 12.9 0.00 0.00 0.00 78 1008.4
20260507161715 29 11 0.0 12.9 0.00 0.00 0.00 78 1008.5
20260507161205 30 347 3.2 12.9 0.00 0.00 0.00 77 1008.5
20260507160700 30 1 0.0 8.0 0.00 0.00 0.00 77 1008.8
20260507160153 30 30 1.6 8.0 0.00 0.00 0.00 76 1008.7
20260507155642 30 39 0.0 8.0 0.00 0.00 0.00 76 1008.6
20260507155133 30 25 0.0 12.9 0.00 0.00 0.00 76 1008.6
20260507154625 30 40 0.0 12.9 0.00 0.00 0.00 76 1008.5
20260507154453 30 310 4.8 8.0 0.00 0.00 0.00 76 1008.8
20260507153608 30 23 0.0 16.1 0.00 0.00 0.00 76 1008.7
20260507153111 30 67 11.3 16.1 0.00 0.00 0.00 76 1008.8
20260507152552 30 30 0.0 12.9 0.00 0.00 0.00 76 1008.6
20260507152045 30 23 1.6 12.9 0.00 0.00 0.00 76 1008.9
20260507151535 30 28 0.0 12.9 0.00 0.00 0.00 76 1008.9
20260507151031 30 52 0.0 12.9 0.00 0.00 0.00 76 1008.9
20260507150521 30 73 8.0 12.9 0.00 0.00 0.00 76 1008.8
20260507150006 30 50 8.0 12.9 0.00 0.00 0.00 76 1008.8
20260507145447 30 22 0.0 12.9 0.00 0.00 0.00 76 1009.0
20260507144935 30 36 0.0 16.1 0.00 0.00 0.00 76 1008.8
20260507144425 30 25 0.0 16.1 0.00 0.00 0.00 75 1009.0
20260507143921 30 73 6.4 20.9 0.00 0.00 0.00 76 1009.0
20260507143417 30 95 14.5 20.9 0.00 0.00 0.00 75 1009.0
20260507142959 30 84 4.8 12.9 0.00 0.00 0.00 75 1008.8
20260507141835 30 19 1.6 16.1 0.00 0.00 0.00 75 1008.9
20260507141330 30 22 0.0 20.9 0.00 0.00 0.00 75 1008.6
20260507141211 30 52 0.0 20.9 0.00 0.00 0.00 75 1008.9
20260507140311 30 108 4.8 20.9 0.00 0.00 0.00 75 1008.9
20260507135804 30 306 6.4 20.9 0.00 0.00 0.00 75 1008.7
20260507135252 30 124 4.8 24.1 0.00 0.00 0.00 75 1008.9
20260507135145 30 350 6.4 32.2 0.00 0.00 0.00 75 1008.6
20260507134238 30 18 1.6 32.2 0.00 0.00 0.00 75 1008.8
20260507133732 30 179 1.6 20.9 0.00 0.00 0.00 75 1008.7
20260507133632 30 300 1.6 12.9 0.00 0.00 0.00 75 1008.8
20260507132714 30 189 0.0 16.1 0.00 0.00 0.00 75 1008.8
20260507132207 30 44 1.6 24.1 0.00 0.00 0.00 75 1008.6
20260507131703 30 21 1.6 24.1 0.00 0.00 0.00 74 1008.5
20260507131150 30 101 9.7 20.9 0.00 0.00 0.00 74 1008.4
20260507130644 30 40 4.8 16.1 0.00 0.00 0.00 74 1008.7
20260507130148 30 36 0.0 20.9 0.00 0.00 0.00 74 1008.4
20260507130029 31 213 3.2 20.9 0.00 0.00 0.00 73 1008.5